sat.trackr.live / text

‹ back to catalog

STARLINK-32863

NORAD 62968 · 2025-029W

PAYLOAD ACTIVE UNKNOWN

§ Identity

Operator
Country
US
Launch date
2025-02-11
Launch site
AFWTR
Launch vehicle
Mass (kg)
RCS (m²)

Purposes: comms

External: N2YO · Heavens-Above · Gunter

§ Orbital elements

Epoch: 2026-09-21T12:56:29.259456Z

Period
94.01 min
Inclination
53.1586°
Eccentricity
0.0001106
Mean motion
15.31714333 rev/d
Perigee alt
469.9 km
Apogee alt
471.5 km
Semi-major
6,848.8 km
B*
1.7985e-4
RAAN
41.2924°
Arg perigee
90.6946°
Mean anomaly
269.4182°
Rev number
9,046

§ Raw data

STARLINK-328631 62968U 25029W   26264.53922754  .00005222  00000+0  17985-3 0  99992 62968  53.1586  41.2924 0001106  90.6946 269.4182 15.31714333 90467

JSON: /api/v1/satellites/62968 · /tle

For live sub-satellite position, see the globe view (requires WebGL).

§ Visibility from observer

Set your observer location to see the next 7 days of passes ≥ 10°. The values pass through the URL so the page stays shareable.

No JS? Fill the form by hand. The geolocation button needs JavaScript.